User: anonymous   Login
Location: Archamps
(46.1365°N, 6.1329°E)
Time: 23:26:14
(UTC+00:00)
Language:

CZ-4 R/B - Orbit

View from above orbital plane
View from above orbital plane
View from above satellite
View from above satellite

Ground track
Ground track

The orbit data is extracted from the following two-line orbital elements,

1 29507U 06046C   24151.56638674  .00005124  00000-0  33573-3 0  9993
2 29507  97.6444 187.7230 0039526 339.5198  20.4443 15.07518126962066
Epoch (UTC): 30 May 2024 13:35:35
Eccentricity: 0.0039526
inclination: 97.6444°
perigee height: 516 km
apogee height: 571 km
right ascension of ascending node: 187.7230°
argument of perigee: 339.5198°
revolutions per day: 15.07518126
mean anomaly at epoch: 20.4443°
orbit number at epoch: 96206

The dashed part of the orbit path shows where the satellite is in the earth's shadow,  

DLR